SWA311 KECP-KBNA

Flight info

Callsign SWA311
Flight time 1h 6m
Altitude 36000
Route MGMRY/N0464F350 RKMRT SWFFT3
Aircraft B738/M-SDE2E3FGHIRWXY/LB1

Departure

Time 2026-05-06 18:58
Airport Northwest Florida Beaches International Airport (KECP)

Arrival

Time 2026-05-06 20:04
Airport Nashville International Airport (KBNA)
Time Latitude Longitude Altitude Speed Heading
2026-05-06 18:43 30.35547 -85.79827 64 ft 0 kts 277°
2026-05-06 18:51 30.35545 -85.79812 58 ft 2 kts 277°
2026-05-06 18:52 30.35543 -85.79793 65 ft 2 kts 277°
2026-05-06 18:52 30.35541 -85.79775 59 ft 2 kts 277°
2026-05-06 18:52 30.35539 -85.79759 59 ft 0 kts 277°
2026-05-06 18:54 30.35539 -85.79761 65 ft 3 kts 278°
2026-05-06 18:54 30.35588 -85.79795 58 ft 14 kts 338°
2026-05-06 18:54 30.35667 -85.79762 60 ft 14 kts 60°
2026-05-06 18:54 30.35750 -85.79733 58 ft 15 kts 342°
2026-05-06 18:55 30.35886 -85.79787 62 ft 26 kts 338°
2026-05-06 18:55 30.36079 -85.79872 62 ft 33 kts 339°
2026-05-06 18:55 30.36298 -85.79968 59 ft 33 kts 339°
2026-05-06 18:55 30.36501 -85.80056 63 ft 31 kts 339°
2026-05-06 18:56 30.36694 -85.80139 64 ft 29 kts 340°
2026-05-06 18:56 30.36876 -85.80217 64 ft 27 kts 340°
2026-05-06 18:56 30.37041 -85.80265 61 ft 20 kts 28°
2026-05-06 18:56 30.37088 -85.80143 64 ft 15 kts 85°
2026-05-06 18:57 30.37035 -85.80090 59 ft 19 kts 157°
2026-05-06 18:57 30.36674 -85.79931 61 ft 92 kts 159°
2026-05-06 18:57 30.35875 -85.79582 90 ft 149 kts 159°
2026-05-06 18:57 30.34842 -85.79104 543 ft 168 kts 158°
2026-05-06 18:58 30.33772 -85.78486 1310 ft 174 kts 148°
2026-05-06 18:58 30.33090 -85.77302 1976 ft 192 kts 99°
2026-05-06 18:58 30.33330 -85.75698 2402 ft 222 kts 63°
2026-05-06 18:58 30.34438 -85.74348 2662 ft 244 kts 27°
2026-05-06 18:59 30.36108 -85.73917 3015 ft 260 kts 353°
2026-05-06 18:59 30.37927 -85.74336 3596 ft 271 kts 342°
2026-05-06 18:59 30.39737 -85.74968 4445 ft 273 kts 340°
2026-05-06 18:59 30.41577 -85.75636 5209 ft 278 kts 339°
2026-05-06 19:00 30.43431 -85.76294 6064 ft 279 kts 340°
2026-05-06 19:00 30.45314 -85.76940 6796 ft 284 kts 340°
2026-05-06 19:00 30.47226 -85.77577 7536 ft 288 kts 340°
2026-05-06 19:00 30.48510 -85.77995 8002 ft 291 kts 340°
2026-05-06 19:01 30.51154 -85.78841 8958 ft 297 kts 341°
2026-05-06 19:01 30.53164 -85.79472 9706 ft 301 kts 341°
2026-05-06 19:01 30.55210 -85.80110 10304 ft 310 kts 341°
2026-05-06 19:01 30.57376 -85.80785 10476 ft 334 kts 341°
2026-05-06 19:02 30.59692 -85.81504 10645 ft 355 kts 341°
2026-05-06 19:02 30.62125 -85.82254 10976 ft 367 kts 341°
2026-05-06 19:02 30.64610 -85.83014 11546 ft 371 kts 341°
2026-05-06 19:02 30.67105 -85.83774 12238 ft 371 kts 341°
2026-05-06 19:03 30.69611 -85.84537 12932 ft 373 kts 341°
2026-05-06 19:03 30.72130 -85.85306 13586 ft 376 kts 341°
2026-05-06 19:03 30.74666 -85.86081 14222 ft 378 kts 340°
2026-05-06 19:03 30.77215 -85.86861 14860 ft 380 kts 340°
2026-05-06 19:04 30.79776 -85.87645 15504 ft 381 kts 340°
2026-05-06 19:04 30.82347 -85.88434 16162 ft 383 kts 340°
2026-05-06 19:04 30.84931 -85.89226 16805 ft 385 kts 340°
2026-05-06 19:04 30.87522 -85.90022 17444 ft 387 kts 339°
2026-05-06 19:05 30.89249 -85.90553 17839 ft 389 kts 339°
2026-05-06 19:05 30.91873 -85.91360 18419 ft 391 kts 339°
2026-05-06 19:05 30.94510 -85.92171 18957 ft 393 kts 339°
2026-05-06 19:05 30.97162 -85.92987 19470 ft 396 kts 339°
2026-05-06 19:06 31.00705 -85.94078 20135 ft 399 kts 339°
2026-05-06 19:06 31.02522 -85.94638 20494 ft 401 kts 339°
2026-05-06 19:06 31.06101 -85.95741 21181 ft 404 kts 338°
2026-05-06 19:06 31.07940 -85.96308 21531 ft 405 kts 338°
2026-05-06 19:07 31.10677 -85.97153 22032 ft 408 kts 338°
2026-05-06 19:07 31.13391 -85.97991 22510 ft 410 kts 338°
2026-05-06 19:07 31.16158 -85.98846 23022 ft 413 kts 338°
2026-05-06 19:07 31.18943 -85.99707 23479 ft 415 kts 338°
2026-05-06 19:08 31.21743 -86.00573 23871 ft 418 kts 338°
2026-05-06 19:08 31.24554 -86.01443 24279 ft 419 kts 338°
2026-05-06 19:08 31.27378 -86.02317 24696 ft 420 kts 338°
2026-05-06 19:08 31.30206 -86.03193 25098 ft 421 kts 338°
2026-05-06 19:09 31.33046 -86.04073 25490 ft 423 kts 337°
2026-05-06 19:09 31.35897 -86.04957 25872 ft 425 kts 337°
2026-05-06 19:09 31.38759 -86.05846 26244 ft 426 kts 337°
2026-05-06 19:09 31.41630 -86.06738 26607 ft 428 kts 337°
2026-05-06 19:10 31.44513 -86.07634 26977 ft 429 kts 337°
2026-05-06 19:10 31.47405 -86.08534 27337 ft 431 kts 337°
2026-05-06 19:10 31.50308 -86.09437 27659 ft 433 kts 337°
2026-05-06 19:10 31.53226 -86.10346 27987 ft 434 kts 337°
2026-05-06 19:11 31.56152 -86.11258 28286 ft 436 kts 337°
2026-05-06 19:11 31.59095 -86.12177 28573 ft 439 kts 337°
2026-05-06 19:11 31.62051 -86.13100 28844 ft 441 kts 337°
2026-05-06 19:11 31.65019 -86.14026 29132 ft 443 kts 337°
2026-05-06 19:12 31.68002 -86.14958 29409 ft 444 kts 337°
2026-05-06 19:12 31.70999 -86.15895 29663 ft 446 kts 337°
2026-05-06 19:12 31.74008 -86.16837 29902 ft 449 kts 337°
2026-05-06 19:12 31.77032 -86.17783 30157 ft 450 kts 337°
2026-05-06 19:13 31.80053 -86.18728 30456 ft 449 kts 337°
2026-05-06 19:13 31.83068 -86.19671 30837 ft 447 kts 337°
2026-05-06 19:13 31.86061 -86.20607 31208 ft 445 kts 336°
2026-05-06 19:13 31.89048 -86.21544 31526 ft 444 kts 336°
2026-05-06 19:14 31.92030 -86.22481 31822 ft 444 kts 336°
2026-05-06 19:14 31.95011 -86.23420 32148 ft 443 kts 336°
2026-05-06 19:14 31.97985 -86.24355 32497 ft 441 kts 336°
2026-05-06 19:14 32.00942 -86.25286 32865 ft 440 kts 336°
2026-05-06 19:15 32.03891 -86.26215 33210 ft 438 kts 336°
2026-05-06 19:15 32.06836 -86.27144 33527 ft 438 kts 336°
2026-05-06 19:15 32.09773 -86.28071 33865 ft 436 kts 335°
2026-05-06 19:15 32.12704 -86.28996 34193 ft 435 kts 335°
2026-05-06 19:16 32.15620 -86.29917 34491 ft 434 kts 335°
2026-05-06 19:16 32.18564 -86.30760 34737 ft 441 kts 342°
2026-05-06 19:16 32.21694 -86.30920 34955 ft 459 kts 354°
2026-05-06 19:16 32.24897 -86.30342 35206 ft 475 kts
2026-05-06 19:17 32.28049 -86.28955 35421 ft 490 kts 15°
2026-05-06 19:17 32.31135 -86.27223 35667 ft 492 kts 17°
2026-05-06 19:17 32.34198 -86.25411 35863 ft 493 kts 17°
2026-05-06 19:17 32.37259 -86.23578 36021 ft 494 kts 17°
2026-05-06 19:18 32.40342 -86.21748 36011 ft 497 kts 17°
2026-05-06 19:18 32.46536 -86.18135 36007 ft 494 kts 16°
2026-05-06 19:19 32.52675 -86.14605 36009 ft 489 kts 16°
2026-05-06 19:19 32.58791 -86.11108 36018 ft 487 kts 15°
2026-05-06 19:20 32.64893 -86.07615 36018 ft 487 kts 15°
2026-05-06 19:20 32.70992 -86.04113 36015 ft 487 kts 15°
2026-05-06 19:21 32.77089 -86.00605 36019 ft 487 kts 15°
2026-05-06 19:21 32.83197 -85.97084 36021 ft 488 kts 15°
2026-05-06 19:22 32.89319 -85.93550 36019 ft 490 kts 15°
2026-05-06 19:22 32.95454 -85.90002 36025 ft 491 kts 15°
2026-05-06 19:23 33.01598 -85.86443 36017 ft 492 kts 15°
2026-05-06 19:23 33.07762 -85.82868 36015 ft 493 kts 15°
2026-05-06 19:24 33.13893 -85.79306 36017 ft 494 kts 15°
2026-05-06 19:24 33.20052 -85.75718 36012 ft 491 kts 15°
2026-05-06 19:25 33.26181 -85.72143 36011 ft 489 kts 15°
2026-05-06 19:25 33.32289 -85.68577 36014 ft 488 kts 15°
2026-05-06 19:26 33.38382 -85.65016 36018 ft 487 kts 15°
2026-05-06 19:26 33.44476 -85.61450 36028 ft 488 kts 15°
2026-05-06 19:27 33.50586 -85.57870 36024 ft 490 kts 15°
2026-05-06 19:27 33.56726 -85.54264 36020 ft 492 kts 15°
2026-05-06 19:28 33.62884 -85.50641 36014 ft 495 kts 15°
2026-05-06 19:28 33.69073 -85.46993 36041 ft 496 kts 15°
2026-05-06 19:29 33.75285 -85.43326 36032 ft 498 kts 15°
2026-05-06 19:29 33.81510 -85.39644 36016 ft 499 kts 15°
2026-05-06 19:30 33.87688 -85.35983 36011 ft 498 kts 15°
2026-05-06 19:30 33.93898 -85.32299 35995 ft 497 kts 15°
2026-05-06 19:31 34.00092 -85.28618 36000 ft 496 kts 15°
2026-05-06 19:31 34.09448 -85.23571 35998 ft 482 kts
2026-05-06 19:32 34.15810 -85.21061 35999 ft 481 kts
2026-05-06 19:32 34.22185 -85.18562 35987 ft 483 kts
2026-05-06 19:33 34.28576 -85.15998 35987 ft 484 kts
2026-05-06 19:33 34.34968 -85.13404 35984 ft 485 kts
2026-05-06 19:34 34.41373 -85.10800 35984 ft 486 kts
2026-05-06 19:34 34.47790 -85.08190 35981 ft 487 kts
2026-05-06 19:35 34.54214 -85.05574 35968 ft 488 kts
2026-05-06 19:35 34.60648 -85.03001 35972 ft 480 kts
2026-05-06 19:36 34.63849 -85.02631 36002 ft 448 kts 343°
2026-05-06 19:36 34.66847 -85.03218 35988 ft 427 kts 331°
2026-05-06 19:36 34.69541 -85.04510 36015 ft 407 kts 319°
2026-05-06 19:36 34.71937 -85.06273 35997 ft 402 kts 316°
2026-05-06 19:37 34.76627 -85.09994 35989 ft 403 kts 315°
2026-05-06 19:37 34.80540 -85.13095 35984 ft 405 kts 315°
2026-05-06 19:38 34.83749 -85.15617 35360 ft 414 kts 316°
2026-05-06 19:38 34.86175 -85.17507 34715 ft 414 kts 316°
2026-05-06 19:38 34.88606 -85.19393 34058 ft 415 kts 317°
2026-05-06 19:38 34.91018 -85.21266 33261 ft 418 kts 317°
2026-05-06 19:39 34.93506 -85.23198 32504 ft 420 kts 317°
2026-05-06 19:39 34.95975 -85.25117 31744 ft 422 kts 318°
2026-05-06 19:39 34.98422 -85.27022 30942 ft 425 kts 319°
2026-05-06 19:39 35.00919 -85.28967 30318 ft 424 kts 319°
2026-05-06 19:40 35.03402 -85.30899 29647 ft 423 kts 319°
2026-05-06 19:40 35.05874 -85.32824 29042 ft 419 kts 319°
2026-05-06 19:40 35.08319 -85.34731 28442 ft 415 kts 319°
2026-05-06 19:40 35.10610 -85.36521 27886 ft 411 kts 319°
2026-05-06 19:41 35.13007 -85.38394 27337 ft 407 kts 319°
2026-05-06 19:41 35.15352 -85.40295 26747 ft 400 kts 315°
2026-05-06 19:41 35.17437 -85.42470 26084 ft 390 kts 307°
2026-05-06 19:41 35.19311 -85.44861 25427 ft 389 kts 306°
2026-05-06 19:42 35.21164 -85.47254 24890 ft 386 kts 305°
2026-05-06 19:42 35.22998 -85.49621 24394 ft 381 kts 305°
2026-05-06 19:42 35.24813 -85.51956 23886 ft 377 kts 305°
2026-05-06 19:42 35.26617 -85.54269 23362 ft 374 kts 305°
2026-05-06 19:43 35.28401 -85.56554 22776 ft 370 kts 305°
2026-05-06 19:43 35.30173 -85.58822 22209 ft 367 kts 305°
2026-05-06 19:43 35.31931 -85.61074 21610 ft 365 kts 305°
2026-05-06 19:43 35.33677 -85.63309 21017 ft 362 kts 305°
2026-05-06 19:44 35.35417 -85.65537 20428 ft 360 kts 306°
2026-05-06 19:44 35.37140 -85.67743 19909 ft 357 kts 306°
2026-05-06 19:44 35.38848 -85.69931 19405 ft 353 kts 306°
2026-05-06 19:44 35.40537 -85.72098 18915 ft 350 kts 306°
2026-05-06 19:45 35.42212 -85.74248 18433 ft 347 kts 306°
2026-05-06 19:45 35.43870 -85.76377 17899 ft 344 kts 306°
2026-05-06 19:45 35.45513 -85.78490 17369 ft 341 kts 306°
2026-05-06 19:45 35.47138 -85.80578 16888 ft 337 kts 306°
2026-05-06 19:46 35.48746 -85.82650 16391 ft 334 kts 306°
2026-05-06 19:46 35.50346 -85.84711 15911 ft 332 kts 306°
2026-05-06 19:46 35.51933 -85.86757 15466 ft 330 kts 306°
2026-05-06 19:46 35.53485 -85.88752 15353 ft 317 kts 306°
2026-05-06 19:47 35.54980 -85.90674 15207 ft 306 kts 306°
2026-05-06 19:47 35.56426 -85.92571 14806 ft 304 kts 305°
2026-05-06 19:47 35.57848 -85.94478 14431 ft 302 kts 305°
2026-05-06 19:47 35.59258 -85.96376 14050 ft 300 kts 305°
2026-05-06 19:48 35.60664 -85.98266 13650 ft 299 kts 305°
2026-05-06 19:48 35.62068 -86.00152 13219 ft 299 kts 305°
2026-05-06 19:48 35.63451 -86.02006 12811 ft 298 kts 305°
2026-05-06 19:48 35.64847 -86.03878 12403 ft 296 kts 306°
2026-05-06 19:49 35.66238 -86.05742 12002 ft 295 kts 306°
2026-05-06 19:49 35.67618 -86.07593 11704 ft 293 kts 306°
2026-05-06 19:49 35.69002 -86.09450 11414 ft 297 kts 306°
2026-05-06 19:49 35.70215 -86.11467 11096 ft 289 kts 291°
2026-05-06 19:50 35.70860 -86.13748 10815 ft 279 kts 278°
2026-05-06 19:50 35.71000 -86.16088 10541 ft 272 kts 268°
2026-05-06 19:50 35.70945 -86.18395 10279 ft 268 kts 267°
2026-05-06 19:50 35.70866 -86.20659 10014 ft 260 kts 267°
2026-05-06 19:51 35.70791 -86.22822 9901 ft 243 kts 267°
2026-05-06 19:51 35.70776 -86.24883 9516 ft 239 kts 277°
2026-05-06 19:51 35.71418 -86.26775 9192 ft 245 kts 295°
2026-05-06 19:51 35.72281 -86.28623 8706 ft 252 kts 295°
2026-05-06 19:52 35.73167 -86.30514 8248 ft 257 kts 295°
2026-05-06 19:52 35.74063 -86.32424 7892 ft 258 kts 295°
2026-05-06 19:52 35.74956 -86.34329 7519 ft 255 kts 295°
2026-05-06 19:52 35.75837 -86.36206 7155 ft 252 kts 295°
2026-05-06 19:53 35.76708 -86.38060 6793 ft 249 kts 296°
2026-05-06 19:53 35.77573 -86.39900 6440 ft 248 kts 295°
2026-05-06 19:53 35.78438 -86.41745 6076 ft 250 kts 295°
2026-05-06 19:53 35.79309 -86.43601 5699 ft 250 kts 296°
2026-05-06 19:54 35.80170 -86.45442 5321 ft 247 kts 296°
2026-05-06 19:54 35.80733 -86.46648 5115 ft 244 kts 296°
2026-05-06 19:54 35.81566 -86.48437 4821 ft 238 kts 296°
2026-05-06 19:54 35.82384 -86.50190 4524 ft 234 kts 296°
2026-05-06 19:55 35.83187 -86.51918 4232 ft 231 kts 296°
2026-05-06 19:55 35.83975 -86.53623 3965 ft 226 kts 296°
2026-05-06 19:55 35.84734 -86.55282 3660 ft 219 kts 296°
2026-05-06 19:55 35.85463 -86.56896 3350 ft 212 kts 296°
2026-05-06 19:56 35.86166 -86.58468 3093 ft 208 kts 296°
2026-05-06 19:56 35.86855 -86.60044 3014 ft 211 kts 296°
2026-05-06 19:56 35.87540 -86.61629 2977 ft 204 kts 296°
2026-05-06 19:56 35.88186 -86.63129 2968 ft 192 kts 296°
2026-05-06 19:57 35.88792 -86.64541 2962 ft 179 kts 296°
2026-05-06 19:57 35.89348 -86.65843 2963 ft 165 kts 296°
2026-05-06 19:57 35.89877 -86.67093 2966 ft 163 kts 296°
2026-05-06 19:57 35.90402 -86.68334 2972 ft 163 kts 296°
2026-05-06 19:58 35.90926 -86.69580 2971 ft 164 kts 296°
2026-05-06 19:58 35.91450 -86.70829 2984 ft 164 kts 296°
2026-05-06 19:58 35.91993 -86.72063 2978 ft 164 kts 306°
2026-05-06 19:58 35.92978 -86.72718 2994 ft 166 kts 346°
2026-05-06 19:59 35.94119 -86.72959 3000 ft 165 kts 346°
2026-05-06 19:59 35.95226 -86.73199 2986 ft 159 kts 346°
2026-05-06 19:59 35.96302 -86.73436 2992 ft 157 kts 346°
2026-05-06 19:59 35.97380 -86.73678 3017 ft 155 kts 346°
2026-05-06 20:00 35.98435 -86.73620 2992 ft 153 kts 11°
2026-05-06 20:00 35.99480 -86.73326 2983 ft 153 kts
2026-05-06 20:00 36.00513 -86.73021 2909 ft 154 kts 12°
2026-05-06 20:00 36.01533 -86.72652 2740 ft 150 kts 13°
2026-05-06 20:01 36.02515 -86.72275 2517 ft 144 kts 14°
2026-05-06 20:01 36.03464 -86.71906 2326 ft 143 kts 15°
2026-05-06 20:01 36.04410 -86.71536 2167 ft 145 kts 15°
2026-05-06 20:01 36.05382 -86.71153 1958 ft 148 kts 15°
2026-05-06 20:02 36.06355 -86.70771 1746 ft 146 kts 16°
2026-05-06 20:02 36.07299 -86.70402 1556 ft 142 kts 17°
2026-05-06 20:02 36.08240 -86.70032 1374 ft 139 kts 16°
2026-05-06 20:02 36.09162 -86.69670 1193 ft 139 kts 15°
2026-05-06 20:03 36.10082 -86.69310 1008 ft 140 kts 14°
2026-05-06 20:03 36.11005 -86.68956 837 ft 138 kts 17°
2026-05-06 20:03 36.11935 -86.68584 628 ft 142 kts 12°
2026-05-06 20:03 36.12846 -86.68226 580 ft 126 kts 16°
2026-05-06 20:04 36.13356 -86.68023 573 ft 23 kts 18°
2026-05-06 20:04 36.13407 -86.67963 568 ft 6 kts 92°
2026-05-06 20:04 36.13399 -86.67912 575 ft 6 kts 111°
2026-05-06 20:04 36.13387 -86.67861 574 ft 7 kts 89°
2026-05-06 20:05 36.13424 -86.67813 571 ft 10 kts 22°
2026-05-06 20:05 36.13500 -86.67784 568 ft 13 kts 22°
2026-05-06 20:05 36.13514 -86.67681 568 ft 14 kts 106°
2026-05-06 20:05 36.13486 -86.67565 566 ft 15 kts 107°
2026-05-06 20:06 36.13455 -86.67439 569 ft 15 kts 107°
2026-05-06 20:06 36.13415 -86.67334 568 ft 13 kts 145°
2026-05-06 20:06 36.13330 -86.67341 566 ft 13 kts 197°
2026-05-06 20:06 36.13245 -86.67362 569 ft 12 kts 186°
2026-05-06 20:07 36.13161 -86.67372 570 ft 12 kts 181°
2026-05-06 20:07 36.13077 -86.67376 571 ft 13 kts 178°
2026-05-06 20:07 36.12987 -86.67340 573 ft 15 kts 147°
2026-05-06 20:07 36.12907 -86.67260 569 ft 15 kts 140°
2026-05-06 20:08 36.12836 -86.67171 573 ft 14 kts 129°
2026-05-06 20:08 36.12774 -86.67078 571 ft 17 kts 130°
2026-05-06 20:08 36.12674 -86.66936 573 ft 23 kts 131°
2026-05-06 20:08 36.12641 -86.66882 571 ft 3 kts 113°
2026-05-06 20:09 36.12666 -86.66805 571 ft 16 kts 52°
2026-05-06 20:09 36.12760 -86.66717 566 ft 18 kts 17°
2026-05-06 20:09 36.12863 -86.66765 566 ft 14 kts 317°
2026-05-06 20:09 36.12917 -86.66820 566 ft 6 kts 360°
2026-05-06 20:10 36.12950 -86.66794 571 ft 4 kts 37°
2026-05-06 20:10 36.12954 -86.66790 569 ft 0 kts 38°